Lamoni, IA

6:58 PM CDT on March 26, 2017 (GMT -0500)
Lamoni Municipal

Weather History for KLWD - July, 2014

Change the Weather History Date:

Tuesday, July 29, 2014

  Actual Average Record
Temperature  
Mean Temperature 67 °F 75 °F  
Max Temperature 78 °F 85 °F 99 °F (1999)
Min Temperature 56 °F 66 °F 52 °F (2010)
Degree Days  
Heating Degree Days 0 0  
Month to date heating degree days 7 0  
Since 1 June heating degree days 12 19  
Since 1 July heating degree days 7 0  
Cooling Degree Days 2 10  
Month to date cooling degree days 191 293  
Year to date cooling degree days 522 540  
Since 1 June cooling degree days 410 486  
Growing Degree Days 18 (Base 50)    
Moisture  
Dew Point 56 °F    
Average Humidity 69    
Maximum Humidity 93    
Minimum Humidity 45    
Precipitation  
Precipitation 0.00 in 0.15 in 2.29 in (2011)
Month to date precipitation 3.07 4.69  
Sea Level Pressure  
Sea Level Pressure 30.14 in    
Wind  
Wind Speed 5 mph (NNW)    
Max Wind Speed 13 mph    
Max Gust Speed 20 mph    
Visibility 10 miles    
Events      
T = Trace of Precipitation, MM = Missing Value Source: NWS Daily Summary

Daily Weather History Graph

Daily Weather History Graph

Search for Another Location

Airport or City:

Trip Planner

Search our weather history database for the weather conditions in past years. The results will help you decide how hot, cold, wet, or windy it might be!

Date:

Astronomy

Jul. 29, 2014 Rise Set
Actual Time 6:09 AM CDT 8:33 PM CDT
Civil Twilight 5:38 AM CDT 9:04 PM CDT
Nautical Twilight 5:00 AM CDT 9:42 PM CDT
Astronomical Twilight 4:17 AM CDT 10:25 PM CDT
Moon 8:47 AM CDT (7/29) 9:45 PM CDT (7/29)
Length of Visible Light 15h 26m
Length of Day
14h 24m
Waxing Crescent, 7% of the Moon is Illuminated
Jul 29
Waxing Crescent
Aug 3
First Quarter
Aug 10
Full
Aug 17
Last Quarter
Aug 25
New

Hourly Weather History & Observations

Time (CDT) Temp. Dew Point Humidity Pressure Visibility Wind Dir Wind Speed Gust Speed Precip Events Conditions
12:53 AM 60.1 °F 57.0 °F 90% 30.17 in 10.0 mi NW 3.5 mph - N/A   Mostly Cloudy
1:53 AM 57.9 °F 55.9 °F 93% 30.17 in 10.0 mi West 3.5 mph - N/A   Clear
2:53 AM 59.0 °F 57.0 °F 93% 30.17 in 10.0 mi NNW 6.9 mph - N/A   Scattered Clouds
3:53 AM 59.0 °F 55.9 °F 90% 30.15 in 10.0 mi North 4.6 mph - N/A   Clear
4:53 AM 57.0 °F 55.9 °F 96% 30.15 in 10.0 mi NNW 3.5 mph - N/A   Clear
5:53 AM 57.9 °F 55.9 °F 93% 30.15 in 10.0 mi NNW 3.5 mph - N/A   Clear
6:53 AM 57.0 °F 55.0 °F 93% 30.16 in 10.0 mi NW 3.5 mph - N/A   Clear
7:53 AM 63.0 °F 57.9 °F 84% 30.17 in 10.0 mi NW 3.5 mph - N/A   Clear
9:53 AM 70.0 °F 57.9 °F 65% 30.17 in 10.0 mi North 4.6 mph - N/A   Clear
10:53 AM 73.9 °F 55.9 °F 53% 30.18 in 10.0 mi WNW 6.9 mph - N/A   Clear
11:53 AM 75.0 °F 54.0 °F 48% 30.17 in 10.0 mi NNW 6.9 mph - N/A   Scattered Clouds
12:53 PM 73.0 °F 55.9 °F 55% 30.17 in 10.0 mi NNW 6.9 mph - N/A   Overcast
1:53 PM 73.9 °F 55.0 °F 52% 30.16 in 10.0 mi NNW 5.8 mph - N/A   Overcast
2:53 PM 77.0 °F 57.0 °F 50% 30.14 in 10.0 mi North 6.9 mph - N/A   Overcast
3:53 PM 78.1 °F 55.0 °F 45% 30.13 in 10.0 mi North 9.2 mph - N/A   Partly Cloudy
5:53 PM 75.0 °F 55.9 °F 51% 30.11 in 10.0 mi NNW 9.2 mph - N/A   Mostly Cloudy
6:53 PM 73.0 °F 55.9 °F 55% 30.10 in 10.0 mi North 3.5 mph - N/A   Scattered Clouds
7:53 PM 71.1 °F 57.9 °F 63% 30.09 in 10.0 mi NNW 4.6 mph - N/A   Clear
8:53 PM 68.0 °F 55.9 °F 65% 30.08 in 10.0 mi Calm Calm - N/A   Clear
9:53 PM 66.9 °F 57.0 °F 70% 30.09 in 10.0 mi NNW 3.5 mph - N/A   Clear
10:53 PM 64.0 °F 57.0 °F 78% 30.10 in 10.0 mi Calm Calm - N/A   Clear
11:53 PM 60.1 °F 55.9 °F 86% 30.11 in 10.0 mi NW 3.5 mph - N/A   Clear